N5PA-2 Weather Reports


time (UTC)temp
F
wind
direction
speed
knots
gust
knots
rain 1hr
in
rain 24hr
in
rain mn
in
humidity
%
barometer
mb
20260509183505 75 80 0.0 0.9 0.00 0.77 0.77 82 1010.2
20260509182505 75 78 0.0 2.6 0.00 0.78 0.77 82 1010.4
20260509182004 75 80 0.0 2.6 0.00 0.78 0.77 81 1010.4
20260509181505 76 90 0.0 0.9 0.00 0.78 0.77 83 1010.4
20260509181005 76 89 0.0 1.7 0.00 0.78 0.77 82 1010.3
20260509180504 76 90 0.0 1.7 0.00 0.78 0.77 81 1010.2
20260509175505 76 82 0.9 3.5 0.00 0.78 0.77 82 1010.4
20260509175005 75 81 0.9 3.5 0.00 0.78 0.77 82 1010.4
20260509174505 76 84 0.9 3.5 0.00 0.78 0.77 82 1010.4
20260509174005 75 60 0.9 3.5 0.00 0.78 0.77 83 1010.5
20260509173505 75 48 0.9 3.5 0.00 0.78 0.77 82 1010.3
20260509173005 75 311 0.9 1.7 0.00 0.78 0.77 82 1010.5
20260509172505 75 334 0.9 1.7 0.00 0.78 0.77 82 1010.5
20260509172005 75 85 0.0 1.7 0.00 0.78 0.77 83 1010.9
20260509170505 73 36 0.9 2.6 0.00 0.78 0.77 83 1011.1
20260509170005 73 77 0.9 4.3 0.00 0.78 0.77 84 1011.1
20260509165505 73 67 1.7 4.3 0.00 0.78 0.77 83 1011.0
20260509165005 73 46 0.9 2.6 0.00 0.78 0.77 83 1010.9
20260509164005 72 320 0.9 2.6 0.00 0.79 0.77 83 1010.9
20260509163504 72 20 0.9 2.6 0.00 0.79 0.77 83 1011.0
20260509162505 71 60 0.9 2.6 0.00 0.79 0.77 83 1011.2
20260509162004 71 68 0.9 2.6 0.00 0.79 0.77 82 1011.2
20260509161505 70 72 0.9 3.5 0.00 0.79 0.77 82 1011.4
20260509161005 70 62 0.9 3.5 0.00 0.79 0.77 80 1011.5
20260509160504 70 42 0.9 3.5 0.00 0.79 0.77 79 1011.5
20260509155504 69 69 0.9 3.5 0.00 0.79 0.77 76 1011.7
20260509155004 69 55 0.0 2.6 0.00 0.80 0.77 74 1011.7
20260509154504 69 32 0.0 2.6 0.00 0.81 0.77 73 1011.8
20260509153504 69 53 0.0 1.7 0.00 0.83 0.77 73 1011.5
20260509153005 69 21 0.0 0.9 0.00 0.85 0.77 72 1011.5
20260509152504 69 13 0.0 0.9 0.00 0.96 0.77 73 1011.6
20260509152004 69 12 0.0 0.9 0.00 1.17 0.77 73 1011.5
20260509151505 68 40 0.0 1.7 0.00 1.28 0.77 72 1011.4
20260509151005 68 52 0.9 1.7 0.00 1.33 0.77 73 1011.3
20260509150505 68 61 0.9 2.6 0.00 1.35 0.77 73 1011.3
20260509150005 68 45 0.0 2.6 0.00 1.36 0.77 73 1011.3
20260509145504 68 13 0.0 1.7 0.00 1.38 0.77 73 1011.5
20260509145005 68 91 0.0 0.9 0.00 1.39 0.77 73 1011.5
20260509144504 68 0 0.0 0.0 0.00 1.41 0.77 73 1011.6
20260509144004 68 91 0.0 0.9 0.00 1.42 0.77 73 1011.7
20260509143504 67 100 0.0 0.9 0.00 1.43 0.77 73 1011.8
20260509143004 67 103 0.0 0.9 0.00 1.44 0.77 74 1011.5
20260509142504 67 194 0.0 0.9 0.00 1.45 0.77 74 1011.5
20260509142005 67 194 0.0 0.9 0.00 1.46 0.77 74 1011.7
20260509141005 67 0 0.0 0.0 0.00 1.47 0.77 74 1011.7
20260509140005 67 159 0.0 0.9 0.00 1.47 0.77 74 1011.7
20260509135504 67 159 0.0 0.9 0.00 1.47 0.77 74 1011.8
20260509135004 67 0 0.0 0.0 0.00 1.47 0.77 74 1011.6
20260509134504 67 0 0.0 0.0 0.00 1.47 0.77 74 1011.4
20260509133005 66 158 0.0 1.7 0.00 1.47 0.77 74 1010.8
20260509132504 66 22 0.0 0.9 0.00 1.47 0.77 74 1010.7
20260509132004 66 22 0.0 0.9 0.00 1.47 0.77 74 1010.5
20260509131504 66 0 0.0 0.0 0.00 1.47 0.77 74 1010.2
20260509131004 66 293 0.0 2.6 0.00 1.47 0.77 74 1010.4
20260509130504 66 203 0.0 2.6 0.00 1.47 0.77 75 1010.3
20260509130005 66 148 0.0 0.9 0.00 1.47 0.77 75 1010.2
20260509125504 65 0 0.0 0.0 0.00 1.47 0.77 75 1010.1
20260509125004 65 0 0.0 0.0 0.00 1.47 0.77 75 1009.9
20260509124504 65 0 0.0 0.0 0.00 1.47 0.77 75 1010.0
20260509124004 65 0 0.0 0.0 0.00 1.47 0.77 75 1010.1
20260509123004 65 231 0.0 1.7 0.00 1.47 0.77 75 1009.6
20260509122504 65 232 0.9 2.6 0.00 1.47 0.77 75 1009.2
20260509121504 65 107 0.0 1.7 0.01 1.47 0.77 75 1009.2
20260509121004 65 91 0.9 7.0 0.01 1.47 0.77 75 1009.3
20260509120504 65 72 1.7 7.0 0.02 1.47 0.77 75 1009.3
20260509120004 65 69 1.7 6.1 0.02 1.47 0.77 75 1009.2
20260509115504 65 79 0.9 6.1 0.02 1.47 0.77 75 1009.5
20260509114503 65 87 1.7 7.0 0.02 1.47 0.77 75 1009.2
20260509114004 65 83 1.7 7.0 0.03 1.47 0.77 75 1008.9
20260509113504 65 81 0.9 2.6 0.04 1.47 0.77 75 1009.0
20260509113003 65 77 0.9 2.6 0.05 1.47 0.77 75 1009.0
20260509112504 65 70 0.9 3.5 0.19 1.47 0.77 75 1009.0
20260509112004 65 72 0.9 4.3 0.44 1.47 0.77 75 1008.9
20260509111004 65 72 0.9 3.5 0.64 1.46 0.76 75 1009.7
20260509110505 65 69 0.9 3.5 0.63 1.45 0.75 75 1009.6
20260509105505 65 31 0.9 2.6 0.65 1.45 0.75 75 1010.1
20260509105005 65 57 0.9 2.6 0.71 1.45 0.75 75 1009.7
20260509103505 65 20 0.9 2.6 0.73 1.43 0.73 75 1009.7
20260509102505 65 173 0.9 3.5 0.58 1.28 0.58 75 1010.0
20260509102005 65 301 0.9 3.5 0.33 1.03 0.33 76 1010.6
20260509101505 64 343 0.9 2.6 0.15 0.85 0.15 76 1010.2
20260509101005 64 27 0.0 1.7 0.12 0.82 0.12 76 1009.5
20260509100504 64 70 0.0 0.9 0.12 0.82 0.12 76 1008.8
20260509095505 64 78 0.9 3.5 0.10 0.80 0.10 76 1007.6
20260509094505 64 0 0.0 0.0 0.00 0.70 0.00 76 1008.8
20260509094005 64 0 0.0 0.0 0.00 0.70 0.00 76 1008.6
20260509093505 64 0 0.0 0.0 0.00 0.70 0.00 76 1008.3
20260509093005 64 0 0.0 0.0 0.00 0.70 0.00 76 1008.3
20260509092504 64 0 0.0 0.0 0.00 0.70 0.00 76 1008.1
20260509092004 64 0 0.0 0.0 0.00 0.70 0.00 76 1008.1
20260509091505 63 0 0.0 0.0 0.00 0.70 0.00 76 1008.6
20260509091005 63 0 0.0 0.0 0.00 0.70 0.00 76 1008.6
20260509090504 63 0 0.0 0.0 0.00 0.70 0.00 76 1008.6
20260509090004 63 0 0.0 0.0 0.00 0.70 0.00 76 1008.6
20260509085505 63 0 0.0 0.0 0.00 0.70 0.00 76 1008.7
20260509085005 63 0 0.0 0.0 0.00 0.70 0.00 76 1008.7
20260509084504 62 0 0.0 0.0 0.00 0.70 0.00 77 1008.9
20260509084004 62 0 0.0 0.0 0.00 0.70 0.00 77 1008.9
20260509083505 62 0 0.0 0.0 0.00 0.70 0.00 77 1008.8
20260509083005 62 0 0.0 0.0 0.00 0.70 0.00 77 1008.6
20260509082005 62 0 0.0 0.0 0.00 0.70 0.00 77 1008.6
20260509081005 63 0 0.0 0.0 0.00 0.70 0.00 77 1008.7
20260509080505 63 0 0.0 0.0 0.00 0.70 0.00 77 1008.5
20260509080005 63 0 0.0 0.0 0.00 0.70 0.00 77 1008.5
20260509075004 63 0 0.0 0.0 0.00 0.70 0.00 77 1008.9
20260509074004 63 0 0.0 0.0 0.00 0.70 0.00 77 1009.2
20260509073505 63 257 0.0 0.9 0.00 0.70 0.00 77 1009.2
20260509073005 63 257 0.0 1.7 0.00 0.70 0.00 77 1009.1
20260509072504 63 257 0.9 1.7 0.00 0.70 0.00 77 1009.2
20260509071505 63 0 0.0 0.0 0.00 0.70 0.00 77 1009.6
20260509071004 63 0 0.0 0.0 0.00 0.70 0.00 77 1009.7
20260509070504 63 0 0.0 0.0 0.00 0.70 0.00 77 1009.8
20260509070004 63 0 0.0 0.0 0.00 0.70 0.00 77 1009.9
20260509065505 63 0 0.0 0.0 0.00 0.70 0.00 77 1009.9
20260509065005 63 0 0.0 0.0 0.00 0.70 0.00 77 1010.1
20260509064505 63 0 0.0 0.0 0.00 0.70 0.00 77 1010.1
20260509064005 63 0 0.0 0.0 0.00 0.70 0.00 77 1010.3
20260509063505 63 0 0.0 0.0 0.00 0.70 0.00 77 1010.2
20260509063005 63 0 0.0 0.0 0.00 0.70 0.00 77 1010.1
20260509062505 64 0 0.0 0.0 0.00 0.70 0.00 77 1010.1
20260509062005 64 0 0.0 0.0 0.00 0.70 0.00 77 1010.2
20260509061505 64 0 0.0 0.0 0.00 0.70 0.00 77 1010.3
20260509061005 64 0 0.0 0.0 0.00 0.70 0.00 77 1010.5
20260509060505 64 257 0.0 0.9 0.00 0.70 0.00 77 1010.6
20260509060004 64 257 0.0 0.9 0.00 0.70 0.00 77 1010.8
20260509055004 64 0 0.0 0.0 0.00 0.70 0.00 77 1011.0
20260509054504 64 0 0.0 0.0 0.00 0.70 0.00 77 1011.0
20260509054004 64 0 0.0 0.0 0.00 0.70 0.00 77 1010.8
20260509053504 65 0 0.0 0.0 0.00 0.70 0.00 77 1010.8
20260509051505 65 0 0.0 0.0 0.00 0.70 0.00 77 1010.5
20260509051005 65 0 0.0 0.0 0.00 0.70 0.00 77 1010.7
20260509050504 65 0 0.0 0.0 0.00 0.70 0.00 77 1010.4
20260509050006 65 0 0.0 0.0 0.00 0.70 0.00 77 1010.2
20260509045504 65 0 0.0 0.0 0.00 0.70 0.70 77 1010.0
20260509045004 65 257 0.0 0.9 0.00 0.70 0.70 77 1010.0
20260509044505 65 217 0.0 0.9 0.00 0.70 0.70 77 1010.1
20260509043504 66 186 0.0 1.7 0.00 0.70 0.70 76 1010.2
20260509043004 66 228 0.9 3.5 0.00 0.70 0.70 77 1010.4
20260509042504 66 233 0.9 3.5 0.00 0.70 0.70 77 1010.5
20260509041505 65 200 0.0 1.7 0.00 0.70 0.70 77 1010.1
20260509040504 66 0 0.0 0.0 0.00 0.70 0.70 77 1010.2
20260509040004 66 280 0.0 1.7 0.00 0.70 0.70 77 1009.8
20260509035504 66 295 0.0 1.7 0.00 0.70 0.70 77 1009.8
20260509035004 66 76 0.0 1.7 0.00 0.70 0.70 77 1009.8
20260509034504 65 76 0.0 0.9 0.00 0.70 0.70 77 1009.6
20260509034004 65 76 0.0 1.7 0.00 0.70 0.70 77 1009.9
20260509033004 65 79 0.0 0.9 0.00 0.70 0.70 77 1010.1
20260509032504 65 81 0.0 1.7 0.00 0.70 0.70 77 1010.2
20260509032004 65 88 0.9 1.7 0.00 0.70 0.70 77 1010.0
20260509031505 65 93 0.0 1.7 0.00 0.70 0.70 77 1010.0
20260509031004 65 122 0.0 0.9 0.00 0.70 0.70 77 1010.3
20260509030504 65 122 0.0 0.9 0.00 0.70 0.70 77 1010.2
20260509030004 65 122 0.0 0.9 0.00 0.70 0.70 77 1010.4
20260509025504 65 0 0.0 0.0 0.00 0.70 0.70 77 1010.5
20260509025004 65 186 0.0 0.9 0.00 0.70 0.70 77 1010.3
20260509024504 65 186 0.0 0.9 0.00 0.70 0.70 78 1010.2
20260509024004 65 0 0.0 0.0 0.00 0.70 0.70 78 1010.4
20260509023004 65 0 0.0 0.0 0.00 0.70 0.70 77 1010.3
20260509022504 66 0 0.0 0.0 0.00 0.70 0.70 77 1010.4
20260509022004 66 0 0.0 0.0 0.00 0.70 0.70 77 1010.4
20260509021504 66 0 0.0 0.0 0.00 0.70 0.70 77 1010.1
20260509021004 66 0 0.0 0.0 0.00 0.70 0.70 77 1010.2
20260509020503 66 0 0.0 0.0 0.00 0.70 0.70 77 1010.3
20260509020005 66 0 0.0 0.0 0.00 0.70 0.70 77 1010.4
20260509015505 66 0 0.0 0.0 0.00 0.70 0.70 77 1010.4
20260509015005 66 0 0.0 0.0 0.00 0.70 0.70 77 1010.3
20260509014505 66 0 0.0 0.0 0.00 0.70 0.70 77 1010.4
20260509014005 66 0 0.0 0.0 0.00 0.70 0.70 78 1010.4
20260509013006 66 0 0.0 0.0 0.00 0.70 0.70 78 1010.5
20260509012005 66 0 0.0 0.0 0.00 0.70 0.70 78 1010.3
20260509011005 66 186 0.0 0.9 0.00 0.70 0.70 78 1010.1
20260509010505 66 0 0.0 0.0 0.00 0.70 0.70 78 1010.0
20260509010005 66 0 0.0 0.0 0.00 0.70 0.70 78 1010.3
20260509005005 66 0 0.0 0.0 0.00 0.70 0.70 78 1010.1
20260509004505 66 0 0.0 0.0 0.00 0.70 0.70 78 1010.0
20260509004005 66 0 0.0 0.0 0.00 0.70 0.70 78 1010.1
20260509003505 66 0 0.0 0.0 0.00 0.70 0.70 78 1010.1
20260509003004 66 0 0.0 0.0 0.00 0.70 0.70 78 1010.4
20260509001505 66 0 0.0 0.0 0.00 0.70 0.70 78 1010.3
20260509001005 66 0 0.0 0.0 0.00 0.70 0.70 78 1010.1
20260509000505 66 0 0.0 0.0 0.00 0.70 0.70 78 1010.3
20260508235504 66 0 0.0 0.0 0.00 0.70 0.70 78 1010.7
20260508235004 66 0 0.0 0.0 0.00 0.70 0.70 78 1010.6
20260508234505 66 0 0.0 0.0 0.00 0.70 0.70 78 1010.5
20260508234004 66 0 0.0 0.0 0.00 0.70 0.70 78 1010.5
20260508233504 66 186 0.0 0.9 0.00 0.70 0.70 78 1010.7
20260508233005 66 186 0.0 0.9 0.00 0.70 0.70 78 1010.7
20260508232505 66 186 0.0 0.9 0.00 0.70 0.70 78 1010.4
20260508230505 66 101 0.0 0.9 0.00 0.70 0.70 78 1010.9
20260508230005 66 101 0.0 0.9 0.00 0.70 0.70 79 1010.7
20260508225504 66 93 0.0 1.7 0.00 0.70 0.70 79 1010.6
20260508225005 65 231 0.0 1.7 0.00 0.70 0.70 79 1010.6
20260508224504 65 238 0.0 2.6 0.00 0.70 0.70 79 1010.6
20260508224004 65 219 0.9 2.6 0.00 0.70 0.70 79 1010.7
20260508223505 65 209 0.0 1.7 0.00 0.70 0.70 79 1010.6
20260508222505 65 137 0.0 1.7 0.00 0.70 0.70 79 1010.5
20260508222004 65 184 0.0 1.7 0.00 0.70 0.70 79 1010.8
20260508221505 65 216 0.0 2.6 0.00 0.70 0.70 79 1010.9
20260508221005 65 222 0.0 2.6 0.00 0.70 0.70 79 1010.8
20260508220504 65 178 0.0 1.7 0.00 0.70 0.70 79 1010.7
20260508220005 65 91 0.0 1.7 0.00 0.70 0.70 79 1010.8
20260508215504 65 77 0.0 1.7 0.00 0.70 0.70 79 1010.9
20260508215004 65 73 0.0 1.7 0.00 0.70 0.70 78 1011.0
20260508214504 65 75 0.0 1.7 0.00 0.70 0.70 79 1010.9
20260508214004 65 82 0.0 0.9 0.00 0.70 0.70 78 1011.2
20260508213504 65 83 0.0 0.9 0.00 0.70 0.70 78 1011.1
20260508212505 65 73 0.0 0.9 0.00 0.70 0.70 78 1011.0
20260508212005 65 63 0.0 0.9 0.00 0.70 0.70 78 1010.8
20260508211504 64 68 0.0 0.9 0.00 0.70 0.70 78 1010.7
20260508211004 64 81 0.0 1.7 0.00 0.70 0.70 78 1010.8
20260508210505 64 79 0.0 1.7 0.00 0.70 0.70 78 1010.7
20260508210005 64 86 0.0 2.6 0.00 0.70 0.70 78 1010.7
20260508205005 64 68 0.9 2.6 0.00 0.70 0.70 78 1010.9
20260508204504 64 60 0.0 2.6 0.00 0.70 0.70 78 1010.9
20260508204005 64 61 0.0 1.7 0.00 0.70 0.70 78 1011.1
20260508203504 64 71 0.9 2.6 0.00 0.70 0.70 78 1011.1
20260508203005 64 78 0.9 2.6 0.00 0.70 0.70 78 1011.2
20260508202505 64 76 0.9 2.6 0.00 0.70 0.70 78 1011.3
20260508201505 64 69 0.9 2.6 0.00 0.70 0.70 78 1011.4
20260508201005 64 62 0.9 2.6 0.00 0.70 0.70 78 1011.4
20260508200504 64 58 0.0 1.7 0.00 0.70 0.70 78 1011.3
20260508200004 64 77 0.0 1.7 0.00 0.70 0.70 78 1011.5
20260508195505 63 343 0.0 0.9 0.00 0.70 0.70 78 1011.6
20260508195004 63 343 0.0 0.9 0.00 0.70 0.70 78 1011.6
20260508194505 63 5 0.0 0.9 0.00 0.70 0.70 78 1011.4
20260508194005 62 20 0.0 0.9 0.00 0.70 0.70 78 1011.2
20260508193004 62 42 0.0 0.9 0.01 0.70 0.70 79 1011.6
20260508192504 62 42 0.0 0.9 0.01 0.70 0.70 79 1011.6
20260508192005 62 80 0.0 1.7 0.01 0.70 0.70 79 1011.5
20260508191504 62 79 0.0 1.7 0.01 0.70 0.70 79 1011.5
20260508190504 62 0 0.0 0.0 0.01 0.70 0.70 79 1012.3
20260508185505 62 79 0.0 1.7 0.01 0.70 0.70 79 1011.8
20260508185005 62 79 0.9 3.5 0.01 0.70 0.70 79 1011.6
20260508184504 62 79 1.7 5.2 0.01 0.70 0.70 79 1011.5
20260508184004 62 78 1.7 5.2 0.01 0.70 0.70 79 1011.2